Regional Weather Roundup
Issued by NWS

Home | Current Version | Previous Version | Text Only | Print | Product List | Glossary Off
Versions: 1 2 3 4 5 6 7 8 9 10 11 12 13 14 15 16 17 18 19 20 21 22 23 24 25 26 27 28 29 30 31 32 33 34 35 36 37 38 39 40 41 42 43 44 45 46 47 48 49 50

000
ASUS43 KFSD 200102
RWRSD

WEATHER ROUNDUP FOR SOUTH DAKOTA
NATIONAL WEATHER SERVICE SIOUX FALLS SD
700 PM CST MON FEB 19 2018

NOTE: "FAIR" INDICATES FEW OR NO CLOUDS BELOW 12,000 FEET WITH NO
SIGNIFICANT WEATHER AND/OR OBSTRUCTIONS TO VISIBILITY.


SDZ001>005-009-010-012>017-200200-
NORTHWEST AND NORTH CENTRAL SOUTH DAKOTA

CITY           SKY/WX    TMP DP  RH WIND       PRES   REMARKS
BUFFALO          N/A      1  -4  79 NE9       29.92S WCI -14
FAITH            N/A      1  -2  87 N17       30.01R WCI -19
MOBRIDGE       LGT SNOW   6   0  76 N14       30.04S WCI -11
$$

SDZ012>016-024>037-041>051-057-063-072>074-200200-
SOUTHWEST AND SOUTH CENTRAL SOUTH DAKOTA

CITY           SKY/WX    TMP DP  RH WIND       PRES   REMARKS
RAPID CTY ARPT LGT SNOW   0  -5  79 N15       29.98R WCI -19
PIERRE         FLURRIES   8   4  83 N15       30.02R WCI  -9
CUSTER         LGT SNOW  -1  -7  75 NE3       29.66S
ELLSWORTH AFB  CLOUDY     0  -4  85 NW13      29.97  BLWGSNOWWCI -18
PHILIP         LGT SNOW   4   1  88 N17       30.02R VSB 3/4 WCI -16
PINE RIDGE     LGT SNOW   2  -3  80 N7        29.92R VSB 3/4 WCI -11
SPEARFISH      LGT SNOW  -4  -8  84 NE6       29.91R VSB 1   WCI -16
WINNER         LGT SNOW  10   5  80 N17       29.93F WCI  -8
$$

SDZ004>011-016>023-039-040-200200-
NORTHEAST SOUTH DAKOTA

CITY           SKY/WX    TMP DP  RH WIND       PRES   REMARKS
ABERDEEN       LGT SNOW   7   2  80 N22       30.07R WCI -14
WATERTOWN      CLOUDY     7   4  87 N21G29    29.93R FOG     WCI -13
BROOKINGS      LGT SNOW  11   6  81 N17       29.91R WCI  -6
SISSETON         N/A      8   4  83 N21       30.05R WCI -12
$$

SDZ017-020-022-023-036>040-048>070-200200-
SOUTHEAST SOUTH DAKOTA

CITY           SKY/WX    TMP DP  RH WIND       PRES   REMARKS
SIOUX FALLS    LGT SNOW  15  12  88 NE13      29.90R FOG     WCI   1
HURON          LGT SNOW   9   6  88 N16       30.01R FOG     WCI  -8
CHAMBERLAIN      N/A     11   8  86 N12       29.98F WCI  -3
MITCHELL       FLURRIES  13   9  84 N16       30.00R WCI  -3
YANKTON        FLURRIES  15  13  91 N12       29.92R WCI   2
$$

ABBREVIATIONS USED IN REMARKS
   TC - TEMPERATURE IN CELSIUS
  WCI - WIND CHILL INDEX
   HX - HEAT INDEX
  VSB - VISIBILITY





USA.gov is the U.S. government's official web portal to all federal, state and local government web resources and services.